Theta_e
298 298 299 298 299 301 302 300 298 302 305 306 303 306 311 311 312 315 317 320 319 321 321 321 321 322 320 319 318 318 317 318 320 320 318 317 318 319 319 320 322 321 318 322
297 298 298 298 299 302 301 299 298 304 305 302 302 302 304 305 308 312 315 318 319 319 321 322 321 321 320 320 321 320 317 319 322 322 321 324 324 322 319 319 318 322 323 323
297 298 298 298 299 302 300 297 300 299 303 301 301 301 301 302 303 304 307 310 311 315 320 319 321 321 323 322 322 322 317 320 322 327 323 321 326 326 321 322 321 324 323 321
298 298 298 298 299 301 301 299 299 299 303 302 303 302 303 303 302 302 303 307 308 310 316 317 322 320 319 319 322 322 320 327 324 324 323 321 322 323 326 326 324 323 323 320
298 298 298 298 300 300 301 300 300 301 300 302 302 303 304 304 304 303 304 305 305 304 308 313 316 319 320 320 321 323 322 328 322 322 324 324 326 326 324 326 327 323 327 326
297 297 298 298 300 299 301 301 300 301 302 302 301 301 302 303 303 303 304 305 305 306 305 305 307 310 313 317 321 324 326 327 327 331 326 330 332 329 327 327 326 327 329 325
297 297 298 298 299 299 299 300 301 301 301 301 302 301 302 302 302 303 303 303 306 305 305 305 306 307 306 307 317 319 324 326 324 328 327 332 324 324 325 327 326 325 325 323
296 297 297 298 298 299 299 299 300 301 301 301 301 302 302 302 302 303 303 303 303 304 305 308 308 309 310 309 311 316 319 325 328 329 328 325 325 324 326 327 328 324 325 323
296 296 297 298 298 298 298 299 299 300 300 301 300 301 300 301 301 301 302 301 302 302 304 308 311 311 309 312 319 317 318 320 325 325 329 327 323 322 322 324 330 322 323 321
296 296 296 297 298 298 298 299 299 300 298 299 300 301 302 301 302 302 302 302 305 306 309 311 312 313 312 312 313 317 320 320 322 324 326 324 322 321 322 330 328 322 321 320
295 295 296 296 296 297 298 298 298 299 299 299 299 300 300 300 301 302 301 302 302 303 308 312 313 313 313 315 317 320 318 322 322 322 326 328 318 318 326 324 319 317 316 318
294 293 293 293 293 295 296 297 297 297 299 298 299 299 299 299 299 301 301 303 303 305 306 310 312 313 316 316 319 319 323 322 324 325 324 322 318 320 317 316 317 314 314 315
294 294 294 294 294 294 295 297 296 297 297 297 298 298 298 299 300 300 301 302 302 304 305 307 310 317 315 315 317 319 320 322 324 322 322 322 319 315 316 314 316 312 312 313
294 294 293 294 294 295 295 297 296 296 297 298 298 298 299 300 300 300 301 301 302 303 303 306 309 311 317 318 320 324 322 321 324 321 319 321 319 317 317 313 311 311 312 312
293 293 293 293 294 295 295 296 296 297 298 298 299 299 299 300 301 302 302 302 303 304 305 306 310 313 316 317 319 322 320 322 325 326 320 322 322 316 313 312 312 312 312 310
293 293 294 295 294 294 296 296 296 296 298 299 300 298 298 300 301 301 301 302 303 304 307 309 311 312 319 320 320 318 319 321 322 324 319 319 318 317 313 312 311 310 311 311
293 293 294 294 294 295 296 296 299 299 298 297 299 301 298 301 302 303 304 305 308 310 312 312 311 316 318 319 321 317 317 319 321 321 319 317 316 313 312 310 308 308 308 308
293 294 294 294 294 295 296 295 295 296 297 294 299 302 300 302 307 310 309 310 311 309 311 313 313 313 316 322 319 316 315 317 318 319 318 319 314 312 310 309 309 310 310 309
293 293 294 295 295 295 296 296 297 298 298 299 299 302 303 304 306 307 308 308 306 308 312 314 316 316 314 319 319 319 315 317 317 314 314 314 313 310 309 310 310 310 309 308
293 294 295 294 296 297 297 298 298 299 300 298 299 300 303 303 303 303 301 306 305 310 309 313 315 316 315 317 317 317 315 314 314 312 312 312 310 309 309 310 310 309 308 305
294 293 294 295 296 297 297 299 298 299 299 298 300 300 301 303 304 304 305 306 306 312 312 313 312 314 311 314 315 315 313 313 313 312 311 310 310 308 307 306 306 305 304 304
294 294 295 296 296 297 297 297 296 299 299 299 304 304 304 304 306 305 304 308 308 313 309 309 312 308 309 313 313 314 314 315 313 311 310 308 307 307 307 306 305 304 302 301
292 295 295 296 295 297 295 292 301 300 300 303 306 308 307 306 304 303 308 308 307 308 311 313 311 307 308 311 313 312 313 313 316 315 312 309 307 305 305 303 301 301 300 299
294 295 295 296 296 292 295 297 301 302 302 302 302 304 307 305 303 305 308 308 308 311 313 314 307 306 308 310 309 308 308 309 310 311 310 307 304 302 302 301 300 299 296 296
294 295 294 294 293 292 294 297 301 300 301 301 301 302 303 303 305 305 307 310 310 311 312 309 305 305 306 308 307 306 305 304 305 304 303 299 298 299 296 298 298 297 295 295
294 295 296 295 296 294 295 298 299 300 298 298 302 304 305 307 306 308 307 308 309 308 304 302 302 304 306 306 304 304 304 303 303 301 300 299 298 298 295 295 295 296 296 295
295 295 292 294 295 297 296 299 300 299 300 302 302 306 309 303 306 305 304 305 304 301 300 300 302 303 304 304 302 302 302 302 300 299 298 297 296 295 295 293 292 295 295 296
Wind_Speed
18 16 14 10 10 11 13 5 2 2 20 4 3 10 4 7 3 5 6 2 6 10 5 8 9 8 7 5 2 8 8 4 6 16 9 7 8 10 8 5 5 5 4 12
20 18 16 13 13 20 11 3 2 4 12 4 3 4 6 6 5 4 3 5 6 1 3 6 14 22 26 13 8 5 6 4 5 9 4 1 6 5 6 3 2 12 9 8
21 20 18 16 17 22 11 3 3 2 2 1 3 1 4 7 1 8 13 11 13 15 12 14 14 17 7 8 14 7 6 6 9 16 8 4 4 7 8 12 6 11 15 15
22 21 20 19 20 24 14 3 4 3 4 7 10 8 5 7 4 7 2 5 19 18 11 19 23 30 24 21 18 5 8 18 9 16 14 8 14 13 13 16 20 11 15 13
23 22 21 21 22 22 15 4 3 1 2 1 11 13 9 13 14 5 8 12 10 13 19 27 29 18 18 21 9 6 2 15 6 10 8 9 10 16 16 17 8 9 6 8
23 22 23 24 25 25 7 9 2 2 4 6 7 11 11 12 7 11 19 14 13 15 24 18 20 18 21 27 21 18 11 6 5 15 2 1 10 17 10 10 7 9 10 10
25 24 24 25 27 32 15 6 5 4 5 9 12 10 14 18 15 18 18 10 16 23 13 15 19 22 27 26 30 22 18 12 6 17 3 18 18 9 15 21 18 14 4 8
27 26 24 25 28 29 29 17 8 2 5 7 11 15 18 18 19 20 22 23 20 16 13 13 15 18 19 33 32 34 25 17 7 8 12 15 20 3 8 8 23 16 15 9
26 25 23 23 27 28 27 27 23 6 6 14 13 15 18 15 16 16 22 21 23 17 10 12 22 15 19 15 13 30 32 26 14 10 13 22 29 15 8 3 21 14 19 12
26 24 23 23 24 26 28 14 26 10 4 9 11 8 8 8 7 9 9 7 6 11 9 14 16 19 15 19 31 26 22 23 27 20 14 13 6 2 9 10 14 9 14 14
24 23 22 22 23 24 24 19 23 18 3 12 13 13 16 12 10 14 5 8 6 5 8 6 9 10 15 19 26 13 32 19 20 24 24 28 8 6 23 17 5 3 8 9
22 21 20 20 21 22 21 15 19 23 14 11 16 25 34 38 39 12 8 13 14 4 2 4 5 7 6 18 22 18 17 22 18 19 22 4 9 12 11 4 4 5 7 6
22 21 19 19 19 19 22 18 13 16 6 15 17 19 44 35 44 43 13 14 14 20 15 10 9 10 6 13 17 25 25 17 13 6 10 14 10 7 6 8 15 7 7 13
20 20 20 20 18 18 18 18 18 21 6 6 13 32 25 43 40 43 45 37 31 21 12 11 10 10 8 12 12 11 7 13 19 8 3 9 13 16 14 8 6 7 10 13
20 20 19 18 17 17 18 22 24 29 13 5 8 24 43 33 28 36 43 38 24 14 13 9 14 13 13 8 6 14 8 7 14 10 10 12 16 8 7 10 10 14 15 7
17 18 17 16 16 14 9 3 16 35 35 5 7 10 17 25 32 36 28 23 17 18 9 11 11 16 6 5 5 9 19 15 17 7 4 6 7 20 14 11 14 11 14 16
15 16 15 16 17 16 9 5 6 3 8 3 4 4 6 9 11 10 15 20 10 8 17 13 8 6 13 10 5 5 11 17 15 14 14 6 8 8 13 12 9 10 9 9
14 14 13 15 16 16 20 32 31 32 12 3 3 6 4 8 4 4 4 4 5 6 3 3 5 5 6 9 18 5 6 9 12 20 18 20 9 13 14 17 16 16 14 12
10 9 10 6 8 5 6 13 16 22 11 3 3 3 4 1 3 5 3 2 3 3 4 3 3 5 7 7 12 15 7 8 10 10 11 16 14 18 17 18 17 16 11 11
6 4 4 3 6 7 6 4 3 5 5 5 6 3 10 1 3 2 4 3 3 3 4 2 3 3 3 10 9 9 8 10 15 10 9 14 13 17 18 19 18 17 15 11
4 3 4 5 3 1 3 4 5 4 3 4 5 11 11 3 7 4 5 3 1 2 2 2 3 3 6 10 10 7 7 9 9 11 9 9 20 18 15 10 10 13 14 13
9 6 4 3 2 3 4 4 3 5 6 3 3 5 6 3 3 4 4 2 1 4 1 1 3 4 4 8 9 9 8 9 14 17 17 13 13 11 16 15 12 10 15 22
12 5 3 3 5 7 5 6 4 3 3 2 3 4 3 3 3 4 3 3 4 2 1 3 4 2 1 6 5 7 7 9 14 15 14 11 8 11 8 11 16 20 20 23
4 5 6 5 5 5 5 3 2 2 3 6 6 5 3 2 3 2 3 2 1 1 2 5 2 4 8 6 6 10 8 11 12 14 15 15 14 11 15 18 26 26 18 23
3 4 6 8 5 3 3 4 3 2 4 6 5 3 3 2 4 1 1 2 2 3 5 4 1 2 8 7 6 8 9 9 9 12 14 13 15 15 12 22 27 29 27 23
3 4 3 3 2 4 1 3 2 1 6 8 3 3 3 5 3 2 5 5 5 4 4 4 3 3 6 8 7 7 9 11 12 12 14 15 15 16 18 23 26 27 27 23
4 4 3 4 3 5 3 3 3 1 2 3 5 4 5 1 1 2 4 4 3 3 3 3 2 5 6 7 9 10 12 13 14 14 14 17 24 27 22 12 13 21 19 19
Wind_Direction
258 250 244 232 210 188 169 170 215 293 157 172 217 228 230 356 315 19 269 295 241 258 291 272 277 258 223 44 164 166 205 174 256 241 237 200 205 218 205 189 249 219 210 258
256 250 237 227 206 183 159 186 235 144 172 200 219 293 307 279 261 62 280 261 211 59 248 270 240 259 266 278 266 231 184 224 296 294 344 115 212 202 204 194 137 239 257 278
251 245 236 224 207 189 183 133 187 299 220 163 140 52 263 261 154 250 241 270 299 287 274 252 271 273 294 262 240 230 168 205 199 253 232 169 220 205 208 211 223 255 246 268
247 240 231 221 209 192 185 171 223 198 189 239 243 233 254 239 249 220 217 256 236 253 278 273 258 260 271 267 290 283 176 245 242 251 253 211 244 243 223 221 242 226 253 234
242 236 229 218 203 194 197 165 165 160 181 106 196 209 224 242 256 253 262 266 286 272 259 250 273 291 272 265 270 211 275 241 209 252 229 210 233 240 232 238 227 245 238 253
237 232 226 217 201 191 198 202 184 85 202 210 214 228 243 256 260 254 250 253 264 257 257 286 295 291 294 277 282 270 244 241 248 263 273 55 256 237 219 233 207 198 218 221
230 227 224 218 208 204 202 176 154 198 229 223 231 248 243 249 252 259 265 261 243 258 283 292 281 274 267 273 269 262 273 256 240 262 229 251 259 189 221 233 234 220 222 187
226 225 223 219 214 210 212 218 193 175 246 230 235 246 249 258 258 257 270 262 260 274 279 280 280 275 267 250 259 246 248 251 247 247 241 271 275 198 200 184 254 223 218 213
222 222 221 218 213 210 216 226 224 219 257 240 247 255 255 257 261 268 262 264 256 259 258 239 246 246 255 248 254 230 239 250 244 243 256 265 262 234 181 144 260 185 207 204
218 218 218 216 214 216 215 228 226 230 243 249 241 231 242 224 223 260 285 300 224 221 240 239 235 244 245 239 253 249 221 227 239 241 251 257 220 230 133 175 253 190 190 196
217 217 217 216 216 217 215 232 228 222 243 259 245 235 239 249 235 250 237 320 239 225 235 251 233 224 230 235 256 278 224 217 225 232 236 246 191 140 202 233 175 200 208 183
218 218 219 219 221 222 220 237 232 236 245 266 272 260 249 241 234 248 236 251 260 294 351 279 252 246 200 232 253 218 232 228 222 202 221 169 180 201 216 195 154 224 192 165
221 221 224 226 227 227 224 230 222 227 253 270 257 256 253 242 236 234 241 246 246 248 244 266 258 257 189 224 256 238 222 201 220 190 210 208 196 239 205 184 210 191 173 157
226 230 232 234 236 236 235 234 238 228 264 264 276 267 247 249 239 233 229 244 250 254 251 246 251 254 244 228 227 246 210 165 209 248 222 209 212 196 189 195 192 137 154 154
232 237 239 241 240 241 245 249 247 231 229 275 285 297 271 264 240 231 233 233 237 235 244 236 247 246 239 236 214 228 206 195 198 217 187 198 213 181 118 164 165 156 147 126
236 241 243 241 237 242 240 269 249 239 226 254 253 255 266 248 233 233 234 232 234 235 230 238 235 246 233 224 206 233 219 207 200 190 175 255 198 172 168 162 152 158 155 146
242 243 242 240 239 231 201 210 179 83 229 263 272 258 249 257 246 243 241 244 233 238 234 229 236 260 213 238 235 220 208 202 194 191 154 176 229 181 159 132 127 111 104 115
240 240 241 247 247 247 246 249 257 273 272 228 240 261 288 186 242 248 189 219 189 202 263 222 202 237 231 246 208 215 237 182 181 174 187 192 160 129 130 133 135 133 132 125
239 251 262 254 222 222 232 250 256 244 215 252 235 244 276 6 347 337 289 184 178 207 233 210 230 181 209 273 180 197 187 187 176 156 153 137 144 147 143 142 139 134 132 126
248 231 169 225 215 224 269 248 233 211 203 218 249 196 253 291 344 287 289 234 200 214 228 267 227 260 234 217 229 162 171 162 152 128 117 128 139 144 152 155 150 147 144 135
180 194 209 220 201 218 230 222 214 200 232 214 237 225 243 211 232 245 226 252 207 253 220 232 229 250 211 202 200 172 158 146 116 101 98 154 156 149 133 112 121 132 136 138
189 246 175 151 197 207 236 235 237 219 227 217 241 230 211 233 205 218 255 246 224 254 87 253 248 254 222 176 186 159 151 134 111 106 106 108 127 128 124 118 125 141 134 131
256 205 159 179 209 221 213 222 204 239 240 261 271 266 230 175 210 240 236 225 232 285 250 247 239 230 70 143 122 117 123 124 119 114 118 113 97 88 124 126 124 121 113 130
243 168 190 217 208 228 211 208 256 248 279 294 302 277 228 207 236 227 196 258 207 29 285 249 224 206 120 107 118 116 146 131 126 140 139 147 142 124 124 131 124 127 132 143
247 192 203 215 232 255 247 250 269 259 271 275 272 234 210 207 248 234 182 199 254 223 228 248 116 148 130 135 130 140 131 111 114 129 129 125 123 118 113 123 131 132 133 134
232 234 247 217 272 281 211 241 271 17 330 305 226 243 199 220 193 158 226 170 221 245 225 273 335 135 114 130 133 129 121 118 116 116 125 122 124 130 122 121 128 133 136 137
216 228 231 252 295 265 233 192 209 192 346 339 296 253 219 92 58 235 209 221 232 255 283 262 7 110 124 116 118 119 119 116 117 116 115 112 117 121 117 112 125 132 135 133